TimeMST,TemperatureF,Dew PointF,Humidity,Sea Level PressureIn,VisibilityMPH,Wind Direction,Wind SpeedMPH,Gust SpeedMPH,PrecipitationIn,Events,Conditions,WindDirDegrees,DateUTC
12:53 AM,30.0,14.0,51,30.06,10.0,WSW,11.5,-,N/A,,Scattered Clouds,250,2013-02-26 07:53:00
1:53 AM,30.0,14.0,51,30.07,10.0,WNW,4.6,-,N/A,,Clear,300,2013-02-26 08:53:00
2:53 AM,30.9,14.0,50,30.06,10.0,WSW,13.8,27.6,N/A,,Clear,250,2013-02-26 09:53:00
3:53 AM,30.0,15.1,54,30.09,10.0,West,5.8,-,N/A,,Scattered Clouds,280,2013-02-26 10:53:00
4:53 AM,28.9,16.0,58,30.12,10.0,West,10.4,-,N/A,,Scattered Clouds,260,2013-02-26 11:53:00
5:53 AM,30.9,16.0,54,30.15,10.0,WSW,9.2,-,N/A,,Overcast,240,2013-02-26 12:53:00
6:53 AM,30.0,16.0,56,30.17,10.0,West,10.4,19.6,N/A,,Overcast,260,2013-02-26 13:53:00
7:53 AM,30.0,17.1,59,30.19,10.0,West,11.5,-,N/A,,Overcast,260,2013-02-26 14:53:00
8:53 AM,30.9,16.0,54,30.22,10.0,West,10.4,-,N/A,,Overcast,280,2013-02-26 15:53:00
9:53 AM,32.0,15.1,50,30.23,10.0,West,12.7,-,N/A,,Partly Cloudy,270,2013-02-26 16:53:00
10:53 AM,37.0,15.1,41,30.22,10.0,West,13.8,20.7,N/A,,Mostly Cloudy,270,2013-02-26 17:53:00
11:53 AM,37.9,14.0,38,30.23,10.0,WNW,17.3,-,N/A,,Partly Cloudy,290,2013-02-26 18:53:00
12:53 PM,39.9,16.0,38,30.23,10.0,WNW,20.7,26.5,N/A,,Mostly Cloudy,290,2013-02-26 19:53:00
1:53 PM,39.0,16.0,39,30.23,10.0,West,16.1,24.2,N/A,,Partly Cloudy,260,2013-02-26 20:53:00
2:53 PM,37.0,15.1,41,30.24,10.0,West,12.7,-,N/A,,Overcast,270,2013-02-26 21:53:00
3:53 PM,39.0,15.1,38,30.25,10.0,West,19.6,23.0,N/A,,Overcast,260,2013-02-26 22:53:00
4:53 PM,34.0,12.0,40,30.28,10.0,West,16.1,-,N/A,,Scattered Clouds,270,2013-02-26 23:53:00
5:53 PM,34.0,12.9,42,30.28,10.0,West,18.4,24.2,N/A,,Scattered Clouds,260,2013-02-27 00:53:00
6:53 PM,33.1,12.0,42,30.31,10.0,West,12.7,-,N/A,,Mostly Cloudy,280,2013-02-27 01:53:00
7:53 PM,30.9,12.0,46,30.33,10.0,West,4.6,-,N/A,,Mostly Cloudy,260,2013-02-27 02:53:00
8:53 PM,30.9,12.0,46,30.34,10.0,WSW,4.6,-,N/A,,Overcast,240,2013-02-27 03:53:00
9:53 PM,30.0,12.9,49,30.34,10.0,WSW,4.6,-,N/A,,Scattered Clouds,240,2013-02-27 04:53:00
10:53 PM,26.1,12.9,58,30.34,10.0,West,4.6,-,N/A,,Partly Cloudy,260,2013-02-27 05:53:00
11:53 PM,30.0,12.9,49,30.32,10.0,SSW,6.9,-,N/A,,Partly Cloudy,200,2013-02-27 06:53:00